Location: Songkhla
(7.2000°N, 100.6000°E)
Time: 03:11:02
(UTC+07:00)

BRICSAT 2 - Pass Details

Date: 20 June 2021
Orbit: 295 x 638 km, 28.5° (Epoch: 28 July)

Event Time Altitude Azimuth Distance (km) Brightness Sun altitude
Rises 22:01:37 0° 290° (WNW) 2,763 ? -44.5°
Enters shadow 22:01:51 - 289° (WNW) 2,675 ? -44.6°
Reaches altitude 10° 22:03:54 10° 284° (WNW) 1,916 - -44.9°
Maximum altitude 22:08:16 47° 210° (SSW) 829 - -45.7°
Drops below altitude 10° 22:12:55 10° 136° (SE) 2,047 - -46.5°
Sets 22:15:24 0° 131° (SE) 2,966 - -46.9°
